www.pogodaiklimat.ru

Погода и климат >> Архив погоды >> Норвегия >> Ставангер аэропорт


ПОГОДА в Ставангер аэропорту

  • Прогноз погоды в Ставангер аэропорту
  • Монитор погоды в Ставангер аэропорту

АРХИВ ПОГОДЫ в Ставангер аэропорту

Время (UTC), дата Ветер
(напр.,м/с)
 
Видим.   Явления Облачность Т
(С)
Тd
(С)
f
(%)
Тe
(С)
Тes
(С)
Комфортность P
(гПа)
Po
(гПа)
Тmin
(С)
Tmax
(С)
R
(мм)
R24
(мм)
S
(см)
01 10.07 СЗ 2
{2}
28 км ясно +10.7 +9.9 95 +9 +9 1018.6 1017.5
02 10.07 штиль 0
{1}
35 км 1/0
[]
+10.5 +9.6 94 +10 +10 1018.4 1017.4
03 10.07 Ю 1
{1}
30 км ясно +9.5 +8.6 94 +9 +9 1018.2 1017.1
04 10.07 штиль 0
{1}
18 км ясно +9.4 +8.6 95 +9 +9 1017.9 1016.8
05 10.07 ЮЗ 1
{1}
30 км ясно +11.8 +10.4 91 +12 +13 1017.7 1016.7
06 10.07 С 3
{3}
40 км 5/0
[]
+12.1 +10.3 89 +10 +12 1017.6 1016.6 +8.8 +13.6
07 10.07 С 2
{4}
40 км ясно +13.8 +10.6 81 +13 +19 1017.5 1016.4
08 10.07 З 4
{6}
50 км 4/4 300 м
[]
+14.7 +9.9 73 +14 +17 1017.3 1016.3
09 10.07 З 5
{6}
45 км 1/0
[]
+15.1 +11.1 77 +14 +19 1017.3 1016.2
10 10.07 З 5
{7}
55 км ясно +15.0 +11.0 77 +14 +20 1017.2 1016.1
11 10.07 З 6
{8}
45 км ясно +15.0 +10.2 73 +13 +19 1017.0 1015.9
12 10.07 СЗ 6
{8}
45 км ясно +15.0 +10.2 73 +13 +19 1016.8 1015.7
13 10.07 СЗ 6
{7}
55 км ясно +16.0 +10.8 71 +15 +20 1016.4 1015.4
14 10.07 З 5
{7}
55 км ясно +16.1 +9.3 64 +15 +21 1016.0 1015.0
15 10.07 З 5
{7}
60 км ясно +16.3 +8.8 61 +15 +20 1015.7 1014.7
16 10.07 З 5
{6}
50 км ясно +15.7 +8.5 62 +15 +18 1015.7 1014.6
17 10.07 З 5
{6}
55 км ясно +15.0 +8.7 66 +14 +16 1015.6 1014.6
18 10.07 СЗ 4
{7}
50 км ясно +14.9 +10.3 74 +14 +15 1015.6 1014.6 +12.2 +16.8
19 10.07 З 3
{5}
45 км ясно +15.0 +10.8 76 +14 +15 1015.5 1014.4
20 10.07 З 2
{3}
50 км ясно +12.8 +10.5 86 +12 +12 1015.0 1013.9
21 10.07 ЮЗ 1
{2}
35 км ясно +11.8 +10.4 91 +12 +12 1014.8 1013.7
22 10.07 ЮЗ 1
{2}
35 км ясно +11.5 +10.3 92 +11 +11 1014.6 1013.6
23 10.07 ЮВ 1
{1}
30 км ясно +10.6 +9.5 93 +10 +10 1014.2 1013.2
00 11.07 ЮЗ 1
{5}
26 км ясно +10.4 +9.2 92 +10 +10 1013.8 1012.7
01 11.07 Ю 1
{2}
21 км ясно +9.8 +8.9 94 +9 +9 1013.4 1012.3
02 11.07 Ю 1
{3}
18 км ясно +9.1 +8.2 94 +8 +8 1012.9 1011.8
03 11.07 ЮВ 2
{2}
6000 м дымка ?/? +9.1 +8.7 97 +7 +7 1012.6 1011.5
04 11.07 Ю 2
{2}
4200 м в посл. час туман 10/10 50 м
[]
+9.5 +9.1 97 +8 +8 1012.4 1011.4
05 11.07 Ю 2
{2}
500 м туман 9/0
[]
+10.4 +10.0 97 +9 +10 1012.3 1011.3
06 11.07 Ю 2
{3}
20 км в посл. час туман ясно +12.5 +11.1 91 +12 +15 1012.2 1011.1 +8.5 +15.2
07 11.07 ЮЗ 2
{4}
19 км 4/0
[]
+13.0 +11.1 88 +12 +16 1012.0 1011.0
08 11.07 ЮЗ 3
{4}
29 км ясно +14.6 +11.4 81 +14 +20 1012.1 1011.1
09 11.07 ЮЗ 2
{4}
20 км ясно +13.8 +11.0 83 +13 +24 опасность
простуды
1012.0 1010.9
10 11.07 З 3
{5}
16 км 4/0
[]
+12.1 +10.0 87 +10 +19 1011.8 1010.7
11 11.07 З 4
{5}
20 км 5/5 100 м
[]
+12.9 +10.8 87 +11 +16 1011.7 1010.6
12 11.07 З 3
{6}
26 км 10/10 100 м
[]
+12.9 +10.8 87 +11 +11 1011.8 1010.8
13 11.07 З 4
{6}
23 км 10/10 100 м
[]
+12.9 +10.6 86 +11 +11 1011.8 1010.8
14 11.07 З 4
{6}
40 км ясно +13.4 +10.2 81 +12 +19 1011.8 1010.7
15 11.07 СЗ 4
{6}
35 км 1/0
[]
+13.0 +10.4 84 +11 +17 1011.8 1010.7
16 11.07 СЗ 4
{5}
35 км ясно +13.5 +10.5 82 +12 +16 1011.6 1010.6
17 11.07 З 3
{5}
30 км ясно +13.5 +10.3 81 +12 +15 1011.5 1010.4
18 11.07 СЗ 3
{6}
35 км ясно +13.6 +10.4 81 +12 +14 1011.5 1010.5 +12.1 +14.7
19 11.07 СЗ 3
{3}
25 км ясно +11.8 +10.1 89 +10 +10 1011.5 1010.4
20 11.07 З 2
{3}
500 м туман 10/0
[]
+10.7 +10.1 96 +9 +9 1011.6 1010.5
21 11.07 З 2
{3}
700 м туман 10/0
[]
+10.3 +9.9 97 +9 +9 1011.6 1010.6
22 11.07 З 2
{3}
200 м туман ?/? +9.6 +9.3 98 +8 +8 1011.8 1010.7
23 11.07 СЗ 1
{3}
200 м слаб. ливневой дождь ?/? +9.3 +9.0 98 +9 +9 1011.7 1010.7
00 12.07 СЗ 2
{3}
300 м туман ?/? +9.4 +9.1 98 +8 +8 1011.4 1010.4
01 12.07 С 2
{3}
500 м туман 10/10 50 м
[]
+9.6 +9.5 99 +8 +8 1011.3 1010.2
02 12.07
{3}
8000 м в посл. час туман 10/10 50 м
[]
+9.7 +9.4 98 1011.1 1010.0
03 12.07 В 2
{3}
7000 м дымка 10/10 50 м
[]
+10.3 +10.0 98 +9 +9 1011.1 1010.0
04 12.07 С 2
{3}
4700 м дымка 10/10 50 м
[]
+10.5 +10.2 98 +9 +9 1011.1 1010.0
05 12.07 СВ 2
{4}
7000 м дымка 10/10 100 м
[]
+11.0 +10.5 97 +10 +10 1011.3 1010.2
06 12.07 З 2
{4}
5000 м дымка 10/10 50 м
[]
+11.0 +10.4 96 +10 +10 1011.7 1010.6 +9.3 +13.6
07 12.07 З 3
{4}
5000 м дымка 10/10 100 м
[]
+11.4 +10.6 95 +9 +9 1011.8 1010.7
08 12.07 З 3
{4}
9000 м дымка 10/10 100 м
[]
+12.7 +11.3 91 +11 +11 1011.9 1010.9
09 12.07 З 4
{5}
10 км дымка н/о +13.3 +11.2 87 +12 +12 1012.0 1010.9
10 12.07 З 5
{6}
12 км 5/0
[]
+14.4 +11.7 84 +13 +18 1012.3 1011.3
11 12.07 З 5
{6}
28 км ясно +15.3 +11.3 77 +14 +21 1012.4 1011.4
12 12.07 З 4
{6}
30 км ясно +15.4 +11.0 75 +14 +24 1012.5 1011.5
13 12.07 З 5
{7}
45 км ясно +15.4 +11.0 75 +14 +21 1012.5 1011.5
14 12.07 СЗ 6
{7}
35 км ясно +15.4 +11.0 75 +14 +18 1012.9 1011.8
15 12.07 СЗ 6
{7}
30 км ясно +15.5 +10.7 73 +14 +17 1012.9 1011.8
16 12.07 СЗ 6
{7}
35 км ясно +15.2 +11.0 76 +14 +16 1012.8 1011.7
17 12.07 СЗ 6
{8}
30 км ясно +14.3 +10.9 80 +12 +14 1012.6 1011.5
18 12.07 СЗ 6
{8}
29 км ясно +14.2 +11.0 81 +12 +13 1013.1 1012.1 +11.0 +16.3
19 12.07 СЗ 5
{7}
30 км ясно +13.9 +10.9 82 +12 +12 1013.2 1012.1
20 12.07 СЗ 4
{6}
27 км ясно +13.0 +10.7 86 +11 +11 1013.5 1012.4
21 12.07 СЗ 4
{5}
23 км 10/10 200 м
[]
+12.9 +11.1 89 +11 +11 1013.8 1012.8
22 12.07 СЗ 2
{5}
23 км 10/10 300 м
[]
+12.7 +10.9 89 +12 +12 1013.9 1012.8
23 12.07 С 4
{5}
26 км 10/10 300 м
[]
+12.8 +10.7 87 +11 +11 1013.9 1012.9
00 13.07 СЗ 3
{7}
28 км 10/10 200 м
[]
+12.9 +10.8 87 +11 +11 1013.7 1012.7
01 13.07 С 3
{5}
30 км 10/10 300 м
[]
+12.9 +10.8 87 +11 +11 1013.6 1012.5
02 13.07 С 3
{5}
28 км 10/10 200 м
[]
+12.8 +10.9 88 +11 +11 1013.6 1012.5
03 13.07 С 4
{6}
28 км 10/10 200 м
[]
+12.7 +10.8 88 +11 +11 1013.6 1012.6
04 13.07 СЗ 5
{6}
23 км 10/10 200 м
[]
+12.7 +10.9 89 +10 +10 1013.8 1012.7
05 13.07 С 5
{7}
26 км 10/10 200 м
[]
+12.9 +11.0 88 +11 +11 1013.8 1012.8
06 13.07 СЗ 6
{7}
18 км 10/10 200 м
[]
+12.7 +11.1 90 +10 +10 1014.0 1013.0 +12.6 +14.6
07 13.07 С 6
{8}
28 км 10/10 200 м
[]
+12.8 +10.9 88 +10 +10 1014.2 1013.1
08 13.07 С 6
{8}
23 км 10/10 200 м
[]
+13.3 +11.2 87 +11 +11 1014.2 1013.1
09 13.07 СЗ 7
{9}
21 км 10/10 200 м
[]
+13.5 +11.2 86 +11 +11 1014.4 1013.3
10 13.07 СЗ 8
{10}
24 км 10/10 300 м
[]
+13.6 +10.8 83 +11 +11 1014.5 1013.5
11 13.07 СЗ 8
{11}
30 км 10/10 300 м
[]
+14.2 +10.6 79 +12 +12 1014.9 1013.8
12 13.07 СЗ 8
{11}
35 км 10/10 300 м
[]
+14.6 +10.4 76 +12 +12 1014.9 1013.8
13 13.07 СЗ 10
{13}
30 км 10/10 300 м
[]
+15.2 +10.6 74 +13 +13 1014.8 1013.7
14 13.07 СЗ 9
{13}
30 км 10/10 600 м
[]
+15.1 +10.5 74 +13 +13 1015.0 1014.0
15 13.07 СЗ 9
{13}
30 км 4/0
[]
+15.0 +10.2 73 +13 +13 1015.5 1014.4
16 13.07 СЗ 9
{12}
30 км ясно +14.7 +10.3 75 +12 +13 1015.2 1014.2
17 13.07 СЗ 8
{12}
30 км ясно +14.2 +10.2 77 +12 +12 1015.2 1014.2
18 13.07 СЗ 8
{13}
30 км ясно +13.5 +9.9 79 +11 +11 1015.8 1014.7 +12.7 +15.9
19 13.07 СЗ 8
{12}
29 км ясно +12.7 +9.7 82 +10 +10 1015.8 1014.7
20 13.07 СЗ 7
{12}
25 км ясно +12.0 +9.6 85 +9 +9 1015.9 1014.9
21 13.07 С 7
{12}
24 км ясно +11.6 +9.3 86 +8 +8 1016.4 1015.3
22 13.07 С 7
{10}
27 км ясно +11.3 +9.2 87 +8 +8 1016.7 1015.6
23 13.07 С 7
{11}
26 км ясно +11.0 +9.1 88 +8 +8 1016.8 1015.8
00 14.07 С 7
{12}
30 км ясно +10.9 +9.0 88 +7 +7 1017.2 1016.1
01 14.07 С 6
{9}
35 км 10/10 300 м
[]
+11.2 +9.0 86 +8 +8 1017.6 1016.5
02 14.07 С 6
{9}
35 км 10/10 300 м
[]
+11.2 +8.6 84 +8 +8 1017.5 1016.4
03 14.07 С 7
{9}
40 км 10/10 300 м
[]
+11.0 +8.2 83 +8 +8 1017.4 1016.3
04 14.07 С 7
{9}
40 км 10/10 300 м
[]
+11.4 +8.8 84 +8 +8 1017.3 1016.2
05 14.07 СЗ 8
{11}
40 км 10/10 300 м
[]
+11.5 +8.4 81 +8 +8 1017.5 1016.4
06 14.07 С 7
{11}
45 км 10/10 300 м
[]
+11.8 +8.3 79 +9 +9 1017.7 1016.7 +10.8
07 14.07 С 7
{10}
45 км 10/10 300 м
[]
+12.2 +8.5 78 +9 +9 1017.8 1016.7
08 14.07 С 8
{11}
45 км 10/10 300 м
[]
+12.6 +7.9 73 +10 +10 1017.8 1016.8
09 14.07 СЗ 10
{13}
45 км 10/10 600 м
[]
+13.2 +8.3 72 +10 +10 1018.1 1017.0
10 14.07 С 8
{12}
50 км 10/10 600 м
[]
+14.0 +8.6 70 +12 +12 1018.1 1017.1
11 14.07 СЗ 9
{12}
50 км 6/0
[]
+15.1 +8.8 66 +13 +14 1018.0 1016.9
12 14.07 СЗ 10
{14}
50 км ясно +15.0 +8.5 65 +13 +13 1017.9 1016.8
13 14.07 СЗ 10
{13}
50 км ясно +15.3 +8.3 63 +13 +14 1017.7 1016.7
14 14.07 СЗ 11
{15}
40 км ясно +14.5 +8.0 65 +12 +12 1017.7 1016.7
15 14.07 СЗ 11
{15}
50 км ясно +14.4 +7.9 65 +12 +12 1017.6 1016.5
16 14.07 СЗ 12
{15}
45 км ясно +14.0 +8.0 67 +11 +11 1017.6 1016.5
17 14.07 СЗ 11
{15}
45 км ясно +13.3 +8.0 70 +10 +10 1017.5 1016.4
18 14.07 СЗ 11
{15}
40 км ясно +13.1 +8.2 72 +10 +10 1017.4 1016.4 +11.7 +15.6
19 14.07 СЗ 10
{15}
40 км ясно +12.2 +7.9 75 +9 +9 1017.3 1016.2
20 14.07 СЗ 11
{17}
40 км ясно +11.5 +8.0 79 +7 +7 1017.0 1016.0
21 14.07 СЗ 11
{16}
35 км ясно +11.0 +8.1 82 +7 +7 1017.4 1016.3
22 14.07 СЗ 8
{13}
40 км ясно +10.8 +8.0 83 +7 +7 1017.4 1016.3
23 14.07 С 7
{11}
45 км 9/9 300 м
[]
+10.7 +8.1 84 +7 +7 1017.0 1016.0
00 15.07 С 8
{17}
40 км 3/0
[]
+10.4 +8.2 86 +6 +6 1016.8 1015.7
01 15.07 С 7
{11}
45 км ясно +10.3 +8.1 86 +7 +7 1016.7 1015.6
02 15.07 С 8
{11}
35 км ясно +10.4 +8.3 87 +6 +6 1016.7 1015.6
03 15.07 С 6
{11}
40 км 10/10 300 м
[]
+10.3 +8.2 87 +7 +7 1016.5 1015.4
04 15.07 СЗ 7
{10}
40 км ясно +10.6 +8.4 86 +7 +7 1016.5 1015.4
05 15.07 С 8
{11}
45 км 8/8 300 м
[]
+11.3 +8.2 81 +8 +8 1016.6 1015.5
06 15.07 С 7
{11}
45 км ясно +12.2 +8.5 78 +9 +10 1016.3 1015.2 +10.3 +13.1
07 15.07 СЗ 10
{13}
50 км ясно +13.1 +8.8 75 +10 +10 1016.0 1015.0
08 15.07 СЗ 9
{12}
50 км 1/0
[]
+13.8 +9.1 73 +11 +12 1016.3 1015.2
09 15.07 СЗ 10
{12}
45 км ясно +15.4 +10.0 70 +13 +14 1016.2 1015.2
10 15.07 СЗ 12
{15}
50 км ясно +15.1 +9.7 70 +12 +12 1015.8 1014.7 0.1
11 15.07 СЗ 12
{16}
60 км ясно +15.8 +9.7 67 +13 +13 1015.7 1014.7
12 15.07 СЗ 11
{16}
50 км ясно +16.2 +10.7 70 +14 +14 1015.7 1014.6 0.2
13 15.07 СЗ 10
{14}
40 км ясно +15.3 +10.7 74 +13 +14 1016.0 1014.9
14 15.07 СЗ 8
{13}
45 км ясно +15.4 +10.8 74 +13 +15 1015.8 1014.8
15 15.07 СЗ 9
{13}
45 км ясно +14.9 +10.7 76 +13 +14 1015.7 1014.7
16 15.07 СЗ 6
{12}
55 км 5/5 300 м
[]
+15.0 +11.0 77 +13 +14 1015.7 1014.7
17 15.07 СЗ 7
{9}
45 км 10/10 200 м
[]
+14.0 +11.2 83 +12 +12 1015.7 1014.6
18 15.07 СЗ 4
{14}
45 км 10/0
[]
+13.6 +11.1 85 +12 +12 1015.2 1014.1 +12.2 +16.2 0.2
19 15.07 СЗ 8
{14}
45 км 10/10 200 м
[]
+13.1 +11.2 88 +10 +10 1015.4 1014.4
20 15.07 СЗ 6
{11}
50 км 10/0
[]
+13.0 +11.1 88 +11 +11 1015.4 1014.3
21 15.07 СЗ 6
{10}
45 км 10/0 2000 м
[]
+12.8 +11.0 89 +10 +10 1015.1 1014.0
22 15.07 СЗ 8
{10}
40 км 10/10 200 м
[]
+12.5 +11.1 91 +9 +9 1015.4 1014.3
23 15.07 СЗ 6
{9}
40 км 10/10 100 м
[]
+11.9 +10.8 93 +9 +9 1015.4 1014.3
00 16.07 С 5
{14}
30 км 6/6 200 м
[]
+11.5 +10.4 93 +9 +9 1015.2 1014.1
01 16.07 СЗ 7
{9}
35 км 10/10 200 м
[]
+11.7 +10.3 91 +8 +8 1015.5 1014.5
02 16.07 СЗ 3
{10}
35 км 10/10 300 м
[]
+11.5 +10.1 91 +10 +10 1015.5 1014.4
03 16.07 СЗ 4
{6}
45 км 6/6 300 м
[]
+11.2 +9.6 90 +9 +9 1015.3 1014.3
04 16.07 СЗ 3
{6}
40 км 4/4 300 м
[]
+10.9 +9.3 90 +9 +9 1015.1 1014.1
05 16.07 СЗ 3
{6}
40 км 10/10 300 м
[]
+11.7 +10.0 89 +10 +10 1015.2 1014.1
06 16.07 С 4
{10}
40 км 5/0
[]
+12.7 +10.4 86 +11 +12 1015.0 1013.9 +10.6 +13.6
07 16.07 СЗ 5
{6}
40 км 10/10 300 м
[]
+13.6 +10.4 81 +12 +12 1014.9 1013.9
08 16.07 С 3
{5}
40 км 1/0
[]
+14.5 +11.1 80 +14 +20 1014.8 1013.7
09 16.07 З 5
{6}
45 км ясно +14.8 +11.0 78 +13 +19 1014.9 1013.9
10 16.07 СЗ 6
{8}
35 км ясно +14.5 +10.9 79 +13 +18 1014.8 1013.7
11 16.07 СЗ 8
{9}
35 км ясно +15.3 +11.3 77 +13 +16 1014.9 1013.8
12 16.07 СЗ 8
{10}
30 км ясно +15.0 +11.0 77 +13 +15 1014.8 1013.7
13 16.07 СЗ 8
{11}
35 км ясно +15.2 +10.8 75 +13 +16 1014.9 1013.8
14 16.07 СЗ 7
{11}
35 км ясно +15.8 +11.2 74 +14 +17 1014.8 1013.7
15 16.07 СЗ 5
{9}
40 км ясно +15.9 +10.5 70 +15 +19 1014.7 1013.6
16 16.07 З 5
{7}
40 км ясно +16.0 +10.3 69 +15 +18 1014.5 1013.4
17 16.07 СЗ 6
{8}
35 км ясно +14.4 +10.6 78 +13 +14 1014.5 1013.4
18 16.07 СЗ 5
{11}
40 км ясно +13.8 +10.4 80 +12 +13 1014.7 1013.7 +12.3 +16.6
19 16.07 СЗ 6
{8}
35 км ясно +12.8 +10.2 84 +10 +10 1014.7 1013.6
20 16.07 СЗ 4
{8}
35 км ясно +11.9 +10.0 88 +10 +10 1014.8 1013.7
21 16.07 СЗ 4
{5}
35 км ясно +11.5 +9.9 90 +9 +9 1015.0 1013.9
22 16.07 СЗ 2
{5}
35 км ясно +11.4 +10.0 91 +10 +10 1014.9 1013.8
23 16.07 З 2
{3}
35 км ясно +11.2 +9.6 90 +10 +10 1015.0 1013.9
00 17.07 З 1
{8}
30 км ясно +11.1 +9.7 91 +11 +11 1014.9 1013.8
01 17.07 ЮЗ 1
{2}
28 км 3/3 300 м
[]
+10.9 +9.8 93 +10 +10 1014.9 1013.8

 

Местоположение метеостанции Ставангер аэропорт (Норвегия): широта 58.88 долгота 5.64 высота над уровнем моря 7 м.

В архиве по умолчанию представлена погода в Ставангер аэропорту за последнюю неделю. Архивные данные за месяц целиком и за предыдущие месяцы, начиная с января 2011 года, Вы можете получить, выбрав интересующий диапазон дат из раскрывающегося списка и нажав кнопку "Ввод!".


*Определитесь, кто Вы:
робот инопланетянин человек

Внимание! Время в таблицах - всемирное. Для получения местного времени необходимо прибавить поправку, которая равна 1 ч.

Смотрите также архив погоды в соседних городах и на ближайших метеорологических станциях:

Погода в Ставангере (Норвегия) (10 км)
Погода в Сархейме (Норвегия) (13 км)
Погода в Квитсёй (Норвегия) (25 км)
Погода на Маяке Obrestad (Норвегия) (26 км)
Погода на Лярватне (Норвегия) (33 км)
Погода в Фистере (Норвегия) (39 км)
Погода в Айгеройе (Норвегия) (51 км)
Погода в Аэропорту Haugesund (Норвегия) (58 км)
Погода на Маяке Utsira (Норвегия) (65 км)
Погода в Эйк-Хоуве (Норвегия) (65 км)

Пояснения к столбцам:

Ветер - указаны скорость ветра в м/с - средняя за 10 мин, порывы в срок и между сроками (в фигурных скобках) и направление, откуда дует ветер: С - северный, СВ - северо-восточный, В - восточный, ЮВ - юго-восточный, Ю - южный, ЮЗ - юго-западный, З - западный, СЗ - северо-западный.
Видимость - горизонтальная дальность видимости в метрах или километрах. При видимости от 1 до 10 км при отсутствии осадков обычно наблюдается дымка, при ухудшении видимости до 1 км и менее - туман. В сухую погоду видимость может ухудшаться дымом, пылью или мглою.
Явления - указаны атмосферные явления, наблюдавшиеся в срок или в последний час перед сроком; фигурными скобками обозначены явления, наблюдавшиеся между сроками (за 1-3 часа до срока); квадратными скобками обозначены град или гололедные отложения с указанием их диаметра в мм.
Облачность - указаны через наклонную черту общая и нижняя облачность в баллах и высота нижней границы облаков в метрах; квадратными скобками обозначены формы облаков: Ci - перистые, Cs - перисто-слоистые, Cc - перисто-кучевые, Ac - высококучевые, As - высокослоистые, Sc - слоисто-кучевые, Ns - слоисто-дождевые, Cu - кучевые, Cb - кучево-дождевые. Подробнее классификацию облаков см. в Атласе облаков (PDF).
T - Температура воздуха - температура, измеренная на высоте 2 м над землей.
Td - Температура точки росы - температура, при понижении до которой содержащийся в воздухе водяной пар достигнет насыщения.
f - Относительная влажность воздуха - влажноcть воздуха, измеренная на высоте 2 м над землей.
Te - Эффективная температура - температура, которую ощущает одетый по сезону человек в тени. Характеристика душности погоды. При расчете учитывается влияние влажности воздуха и скорости ветра на теплоощущения человека.
Tes - Эффективная температура на солнце - температура, которую ощущает человек, с поправкой на солнечный нагрев. Характеристика знойности погоды. Зависит от высоты солнца над горизонтом, облачности и скорости ветра. Ночью, в пасмурную погоду, а также при ветре 12 м/с и более поправка равна нулю.
P - Атмосферное давление - приведенное к уровню моря атмосферное давление.
Po - Атмосферное давление - измеренное на уровне метеостанции атмосферное давление.
Tmin - Минимальная температура - минимум температуры воздуха на высоте 2 м над землей.
Tmax - Максимальная температура - максимум температуры воздуха на высоте 2 м над землей.
R - Количество осадков - Количество выпавших осадков за период времени, мм. При наведении курсора мыши на число - период времени, за который выпало указанное количество осадков.
R24 - Количество осадков - Количество выпавших осадков за 24 часа, мм.
S - Снежный покров - Высота снежного покрова, см. При наведении курсора мыши на число - состояние снежного покрова и степень покрытия местности в баллах.